Wind_Speed
9 5 3 4 4 5 7 8 8 7 6 1 4 7 12 10 2 4 5 4 4 3 3 2 3 4 6 7 8 9 10 10 10 9 10 11 11 9 8 5 3 4 7
7 2 2 2 4 6 9 7 8 7 7 1 5 7 7 7 2 5 5 5 4 3 3 3 5 6 7 8 9 10 11 11 11 11 10 11 12 10 9 8 5 1 5
2 1 3 4 7 6 4 6 6 9 6 3 7 5 7 4 2 3 4 4 4 4 3 3 4 6 7 8 9 9 10 11 12 12 11 10 11 11 10 10 7 4 6
3 4 2 4 4 5 5 7 6 5 5 4 4 8 6 6 2 2 4 1 2 1 1 4 6 7 8 9 10 10 10 11 12 11 11 11 10 11 10 9 8 6 7
4 3 5 6 2 1 6 10 9 7 13 11 7 8 9 7 7 4 6 4 5 6 6 7 7 8 9 10 12 13 12 11 11 11 11 10 9 9 10 10 9 7 7
3 4 3 2 6 7 9 11 11 12 5 6 9 13 16 8 9 8 7 6 7 13 19 17 17 18 13 9 13 16 17 12 10 11 11 10 8 7 8 9 10 8 8
2 3 5 4 3 8 11 13 16 15 15 8 1 6 9 12 11 9 8 8 6 10 10 10 13 13 10 4 8 14 15 13 11 12 12 11 8 6 6 7 9 9 8
3 2 4 4 4 5 8 12 15 15 14 11 3 2 2 2 16 5 5 19 18 17 11 8 10 12 10 7 6 10 11 13 13 14 13 12 11 6 4 5 7 9 7
4 1 2 3 3 5 5 10 12 15 18 20 10 4 2 1 3 9 19 17 18 14 15 13 10 7 9 11 10 9 12 12 13 13 13 13 12 9 4 3 4 6 7
6 4 3 2 1 3 3 8 11 13 15 14 12 14 10 5 2 1 2 9 11 12 7 3 9 11 13 17 16 14 15 13 12 13 12 14 11 9 5 2 2 3 4
8 7 7 5 4 1 2 4 7 8 12 13 14 6 7 7 6 3 3 5 3 9 7 9 18 19 20 15 9 8 12 14 13 13 14 14 12 8 5 2 0 1 1
7 6 8 7 6 3 0 0 2 4 7 8 9 10 3 2 2 1 2 3 6 3 9 11 12 19 16 7 10 11 15 14 15 14 14 15 13 9 4 3 1 1 3
11 12 7 8 7 4 4 2 0 2 3 5 7 8 8 7 6 0 1 1 3 4 6 11 8 12 10 4 9 13 17 11 11 14 16 16 12 10 4 4 3 3 3
11 10 12 10 9 7 6 5 4 2 1 3 2 5 5 5 6 6 5 1 2 3 5 6 6 8 9 12 15 16 16 12 16 20 17 11 7 6 6 5 6 6 5
13 10 14 12 9 9 6 7 5 3 3 1 4 4 6 6 3 3 6 4 3 1 3 2 5 7 10 13 14 17 18 18 22 20 15 12 8 7 8 9 8 8 8
13 11 14 12 13 11 10 9 7 5 4 3 2 1 2 3 3 4 3 6 5 6 1 4 7 10 12 13 17 16 17 14 9 16 14 10 7 11 12 14 14 12 8
15 14 12 11 9 8 12 10 10 8 5 7 5 4 3 1 1 2 3 2 4 5 1 1 5 12 9 14 13 15 14 17 15 15 13 13 12 12 13 13 14 10 9
11 10 14 12 11 9 11 13 12 10 10 9 8 7 6 4 3 3 2 2 3 3 2 4 4 9 9 14 15 15 16 16 15 13 14 13 12 12 13 19 15 3 3
13 9 10 13 13 13 13 11 10 9 10 7 9 12 10 6 5 4 2 2 1 3 4 5 6 7 7 13 15 14 15 16 16 14 15 16 13 16 14 15 18 13 7
17 13 11 11 11 12 11 12 13 5 9 8 4 1 6 7 7 6 4 3 4 6 5 6 6 6 7 12 10 17 20 16 12 18 17 18 20 21 17 15 13 10 9
22 18 13 13 10 10 13 13 10 8 8 6 4 5 4 6 6 6 6 3 3 2 3 5 6 5 6 10 15 14 13 13 7 20 18 23 20 22 23 21 15 12 15
22 19 14 12 11 9 9 7 8 9 10 8 6 5 2 3 5 6 4 2 3 2 2 1 2 6 6 9 8 10 14 10 6 17 16 19 21 21 22 27 23 21 21
16 13 11 9 9 10 11 10 8 7 9 8 8 7 6 4 3 4 5 6 5 5 2 1 2 3 5 5 6 9 9 9 5 24 15 12 21 17 21 24 24 23 25
20 18 11 11 9 6 4 4 6 8 9 10 9 9 7 5 5 8 10 8 7 4 3 2 4 5 5 4 1 5 7 7 5 15 21 8 21 17 8 21 23 26 24
17 18 12 10 11 7 3 1 2 7 11 11 10 8 6 7 7 7 6 7 7 9 15 19 23 21 17 15 11 5 10 9 6 8 24 7 18 19 7 19 24 26 23
15 16 16 13 8 3 3 1 5 11 13 13 11 9 9 9 8 7 6 8 11 13 16 17 18 19 19 18 17 14 10 13 8 8 22 6 17 16 7 7 19 26 24
Wind_Direction
179 181 203 195 237 271 277 292 289 298 316 259 187 192 220 223 202 138 131 122 116 113 104 71 40 25 21 15 9 5 2 2 5 3 7 8 12 11 4 357 317 246 217
146 181 310 256 4 9 326 295 282 285 305 263 143 137 107 187 83 117 112 113 117 101 59 28 11 11 14 17 16 12 10 8 9 6 5 10 15 17 20 19 16 209 184
120 247 318 293 328 335 345 349 317 303 287 223 164 155 160 109 133 92 106 114 93 74 47 16 4 3 8 12 16 12 8 7 8 6 3 5 15 21 27 26 34 77 148
119 114 353 36 28 342 309 343 311 291 180 182 200 197 178 195 180 259 271 323 30 38 57 31 16 6 5 8 11 5 3 8 8 7 3 0 7 22 27 31 38 82 136
119 75 53 114 160 47 41 32 38 34 201 223 244 201 210 202 202 227 229 242 258 268 288 307 337 336 349 359 360 0 357 358 8 14 10 3 359 16 29 36 48 77 128
61 27 19 359 39 63 41 33 36 53 139 199 225 221 217 204 200 230 261 249 302 307 311 311 311 317 317 336 350 356 354 352 359 14 14 10 360 6 28 45 54 72 121
153 95 69 107 61 35 22 27 35 47 41 26 107 121 216 231 249 250 14 27 12 3 345 356 355 15 4 328 5 5 358 358 354 2 9 14 11 2 24 52 64 78 102
153 142 99 90 78 40 29 32 39 46 46 29 40 94 50 261 50 88 96 63 60 57 55 31 39 42 43 24 331 345 352 355 356 345 7 18 15 9 9 45 75 87 103
169 192 90 98 88 41 51 45 46 46 41 59 56 98 75 195 132 82 81 70 56 54 53 37 15 51 26 7 332 327 343 345 345 345 359 6 10 13 356 23 61 91 104
181 159 188 139 45 42 89 58 51 52 55 65 72 88 99 149 155 100 134 55 44 30 22 316 340 329 9 344 317 297 314 331 330 335 345 360 359 8 11 7 21 61 100
214 202 190 203 237 208 116 59 60 57 68 72 94 105 109 84 89 132 238 250 331 340 316 348 331 328 293 319 333 301 326 327 320 320 329 345 350 358 17 39 12 300 345
224 207 214 213 223 227 215 104 90 67 73 73 70 53 357 145 41 85 294 346 322 312 344 312 313 315 310 290 285 320 330 318 318 317 317 328 337 346 12 31 45 276 266
224 234 206 209 240 231 216 204 188 137 90 85 80 70 80 83 45 63 7 56 346 331 327 333 331 324 340 286 321 314 304 322 339 331 323 326 315 332 345 13 10 339 287
214 216 209 210 222 233 213 221 237 228 165 104 91 79 120 89 58 19 315 267 351 345 336 272 324 344 346 326 319 314 303 347 343 332 322 325 313 322 346 343 353 341 319
216 230 208 204 216 221 217 214 234 240 238 291 97 73 132 110 113 120 62 214 223 188 264 330 259 308 335 339 335 316 311 338 336 340 339 337 323 325 336 338 328 337 341
212 205 207 210 218 229 220 217 223 229 228 227 259 275 88 103 112 138 163 55 271 221 169 232 344 319 347 349 7 20 32 22 23 31 27 19 4 351 338 332 319 312 320
222 219 217 209 228 227 213 225 225 233 239 210 237 227 249 265 105 83 68 108 67 64 58 9 4 16 32 21 26 33 25 23 20 18 6 21 20 17 9 352 334 303 282
201 221 211 214 216 232 225 227 230 231 220 215 215 222 228 225 231 245 266 353 10 39 357 283 342 18 33 20 19 10 5 1 7 12 1 0 16 15 7 11 350 358 182
223 221 214 222 235 246 244 240 241 242 210 225 241 235 232 222 238 262 272 288 355 359 3 349 0 4 17 4 355 355 0 355 3 21 24 38 51 50 44 32 47 58 74
219 223 228 228 232 229 240 250 234 221 222 224 228 202 224 237 236 243 251 271 312 329 327 343 349 1 354 352 4 357 349 2 45 21 39 45 40 39 43 36 46 51 49
227 220 219 233 238 234 240 243 239 215 229 233 229 227 257 245 239 233 241 249 284 312 327 331 337 328 350 5 357 355 0 8 54 22 34 33 30 39 43 34 34 38 40
232 232 223 229 231 243 257 260 243 236 219 232 231 216 208 208 221 209 177 211 248 254 261 248 341 357 354 358 15 25 22 4 357 9 13 30 28 48 53 44 56 56 50
218 226 206 208 211 231 252 262 251 238 224 218 204 213 204 207 209 199 157 163 123 113 98 55 312 312 325 353 3 16 19 14 56 26 18 34 20 46 47 40 42 42 36
221 239 234 210 246 248 256 287 256 239 218 212 208 196 196 181 171 161 156 145 115 87 57 341 303 316 309 317 320 70 51 55 71 27 23 27 10 13 38 34 28 27 34
202 200 217 211 195 209 227 333 291 177 171 151 142 139 138 133 136 147 168 142 116 88 100 101 102 95 92 88 79 76 49 32 37 27 18 41 10 359 18 27 18 22 37
179 170 174 172 168 169 208 177 200 180 152 139 131 129 123 119 122 127 129 123 104 106 115 112 101 97 96 90 76 66 52 67 58 31 10 44 21 20 343 355 14 19 23
Height
859 859 859 859 860 862 861 860 861 861 862 861 860 860 861 862 862 861 862 862 862 862 861 860 859 858 856 854 853 851 849 845 843 840 837 834 830 827 823 820 820 820 820
862 861 861 861 861 863 862 862 862 862 862 861 861 861 862 863 863 863 863 863 862 863 864 863 861 859 857 856 854 852 851 847 844 841 838 835 831 827 824 821 819 818 818
863 863 864 865 866 864 862 862 862 861 862 862 863 864 864 865 865 865 866 864 865 866 865 864 861 860 859 858 856 854 851 848 845 842 839 836 833 829 825 822 819 819 819
866 866 868 870 865 865 864 863 862 862 864 864 865 866 866 865 866 867 866 867 867 865 863 862 862 862 861 860 858 855 852 849 846 843 840 838 834 831 827 824 821 820 820
869 867 868 870 871 869 866 865 864 862 864 865 864 866 865 866 865 866 864 863 863 863 863 862 862 862 862 861 859 857 854 851 847 844 841 838 836 833 829 826 823 821 821
866 867 867 867 867 869 869 867 865 863 864 864 862 863 864 865 865 864 864 866 866 868 866 865 863 862 862 862 860 859 856 853 849 844 841 839 836 834 831 828 824 823 822
868 868 868 869 869 870 870 868 866 864 865 863 862 862 864 864 865 865 869 868 865 865 864 863 862 862 860 860 860 858 856 853 851 847 842 839 836 834 832 829 827 824 824
867 868 868 869 869 870 869 869 867 866 866 863 861 861 865 865 865 865 867 868 867 864 862 862 863 860 859 859 859 857 855 853 851 850 845 841 837 834 832 830 828 826 825
866 867 869 869 869 869 871 871 869 868 867 865 862 863 866 869 867 871 866 866 865 863 862 860 859 858 859 858 859 858 854 852 850 850 846 842 839 836 833 831 830 828 827
865 866 867 868 868 870 871 870 870 870 868 866 866 863 863 862 867 870 868 864 862 862 860 858 856 856 857 857 857 855 854 851 850 849 847 843 840 836 834 832 830 829 828
864 866 866 868 869 869 870 870 871 871 870 869 866 867 866 864 862 864 866 861 859 858 857 856 856 853 853 857 855 853 853 852 850 848 847 844 840 836 834 832 830 829 828
863 863 865 866 868 868 869 870 871 872 871 869 868 867 865 865 864 863 866 862 860 856 855 856 856 855 854 854 853 853 852 851 849 847 845 843 840 837 834 832 830 829 827
861 861 862 864 866 867 868 869 871 870 870 869 867 867 867 866 864 864 864 865 863 859 856 856 856 856 853 853 853 853 852 850 847 845 843 841 839 837 834 832 830 829 828
858 859 860 862 865 866 867 868 869 869 869 869 868 867 867 867 865 864 864 863 863 861 861 861 859 857 855 854 854 853 851 848 846 845 842 840 837 836 834 832 830 829 827
856 859 860 861 862 863 864 866 867 867 867 867 867 866 866 866 866 866 865 864 864 865 866 861 860 859 857 854 852 851 849 847 847 845 841 838 836 834 833 832 831 829 827
855 857 859 860 862 862 862 864 865 866 865 866 866 867 867 867 867 867 864 862 864 863 862 860 860 858 856 854 852 850 848 846 847 843 840 836 834 834 832 831 829 827 825
852 854 856 858 861 861 861 862 863 864 864 864 864 864 864 865 865 865 865 865 863 861 860 859 860 858 855 854 852 850 847 846 845 844 842 838 834 831 829 828 825 823 823
850 852 853 856 858 860 861 861 861 861 861 862 863 863 863 863 864 864 865 864 862 860 859 858 858 856 854 852 851 850 849 847 846 843 841 838 834 830 828 824 819 817 820
849 850 851 853 856 858 859 860 860 860 859 860 862 862 861 861 861 862 862 862 862 862 860 857 856 855 853 852 850 850 849 847 845 843 840 836 832 829 826 824 822 821 821
847 849 850 852 854 855 856 856 856 858 859 861 861 859 859 859 860 860 861 860 859 859 858 856 855 855 854 853 852 850 847 845 843 842 840 836 832 829 826 825 824 824 824
846 847 849 851 852 852 853 854 855 855 856 858 859 858 857 857 858 858 858 858 857 857 857 856 856 856 855 854 852 850 847 845 844 842 839 836 833 829 827 826 825 826 826
846 847 847 847 849 850 851 851 852 852 854 856 856 856 855 855 855 856 856 857 857 856 856 855 856 856 855 854 852 851 849 846 845 843 839 837 834 833 833 831 829 826 824
842 845 844 845 848 849 849 849 849 850 851 853 854 854 854 854 854 855 856 856 855 855 854 854 853 853 852 852 851 851 849 847 847 844 838 838 836 836 836 834 832 829 826
837 841 843 842 846 848 848 847 847 847 848 849 850 851 851 851 853 854 855 856 855 855 853 852 850 850 849 849 849 849 847 845 844 843 840 839 838 837 837 836 833 831 828
834 837 838 841 845 848 847 845 845 845 846 847 848 849 850 850 851 852 853 854 854 854 852 851 850 849 848 848 848 848 845 843 842 843 841 840 840 837 836 836 834 832 829
831 833 837 840 844 844 844 845 844 845 845 845 848 850 849 850 851 851 852 851 852 853 853 851 850 849 849 848 847 847 846 843 844 846 846 846 842 839 837 836 835 833 831